When you browse on this site, cookies collect data to enhance your experience and personalize the content and advertising you see.
Visit our Privacy Policy to learn more. By continuing to use the site, you agree to this use of cookies and data.
  • In United Kingdom
  • List of Countries
  • For 7 days
  • Water Temperature
  • Weather Map
  • Weather Widgets
  • user-avatar
    Login

    Hourly Weather Bystra Krakowska

    Today, 27 February, Thursday

    Time Temperature Precipitation Wind Pressure Humidity
    00:00 +1°C° 0 mm 3 mps 719 mmHg 75%
    01:00 0°C° 0 mm 3 mps 719 mmHg 75%
    02:00 0°C° 0 mm 3 mps 719 mmHg 81%
    03:00 0°C° 0 mm 3 mps 720 mmHg 87%
    04:00 -1°C° 0 mm 3 mps 720 mmHg 93%
    05:00 -2°C° 0 mm 4 mps 720 mmHg 89%
    06:00 -1°C° 0 mm 4 mps 721 mmHg 86%
    07:00 -1°C° 0 mm 4 mps 721 mmHg 83%
    08:00 -1°C° 0 mm 5 mps 721 mmHg 79%
    09:00 0°C° 0 mm 5 mps 722 mmHg 74%
    10:00 +1°C° 0 mm 6 mps 722 mmHg 70%
    11:00 +2°C° 0 mm 6 mps 722 mmHg 66%
    12:00 +2°C° 0 mm 6 mps 722 mmHg 63%
    13:00 +3°C° 0 mm 6 mps 723 mmHg 59%
    14:00 +2°C° 0.1 mm 5 mps 723 mmHg 61%
    15:00 +3°C° 0.1 mm 4 mps 722 mmHg 63%
    16:00 +3°C° 0.1 mm 4 mps 722 mmHg 65%
    17:00 +2°C° 0 mm 3 mps 722 mmHg 71%
    18:00 +2°C° 0 mm 2 mps 722 mmHg 76%
    19:00 +2°C° 0 mm 1 mps 722 mmHg 81%
    20:00 +1°C° 0 mm 1 mps 722 mmHg 80%
    21:00 -1°C° 0 mm 2 mps 722 mmHg 80%
    22:00 -1°C° 0 mm 2 mps 722 mmHg 80%
    23:00 -1°C° 0 mm 2 mps 721 mmHg 80%

    Tomorrow, 28 February, Friday

    Time Temperature Precipitation Wind Pressure Humidity
    00:00 -1°C° 0 mm 3 mps 721 mmHg 81%
    01:00 0°C° 0 mm 3 mps 720 mmHg 81%
    02:00 -1°C° 0.1 mm 4 mps 720 mmHg 83%
    03:00 -2°C° 0.1 mm 4 mps 719 mmHg 84%
    04:00 -2°C° 0.1 mm 4 mps 718 mmHg 86%
    05:00 -2°C° 0.5 mm 4 mps 718 mmHg 89%
    06:00 -1°C° 0.5 mm 3 mps 718 mmHg 91%
    07:00 -1°C° 0.5 mm 2 mps 718 mmHg 94%
    08:00 -1°C° 0.5 mm 3 mps 719 mmHg 94%
    09:00 0°C° 0.5 mm 3 mps 720 mmHg 94%
    10:00 -1°C° 0.5 mm 4 mps 721 mmHg 95%
    11:00 -1°C° 0.5 mm 4 mps 722 mmHg 92%
    12:00 0°C° 0.5 mm 5 mps 723 mmHg 89%
    13:00 0°C° 0.5 mm 5 mps 724 mmHg 86%
    14:00 -1°C° 0.4 mm 6 mps 725 mmHg 88%
    15:00 -2°C° 0.4 mm 6 mps 726 mmHg 90%
    16:00 -2°C° 0.4 mm 6 mps 727 mmHg 92%
    17:00 -2°C° 0.1 mm 5 mps 727 mmHg 91%
    18:00 -1°C° 0.1 mm 3 mps 728 mmHg 90%
    19:00 -2°C° 0.1 mm 2 mps 729 mmHg 89%
    20:00 -2°C° 0.2 mm 3 mps 730 mmHg 90%
    21:00 -1°C° 0.2 mm 3 mps 730 mmHg 91%
    22:00 -1°C° 0.2 mm 3 mps 731 mmHg 92%
    23:00 -2°C° 0 mm 3 mps 731 mmHg 92%

    Day after tomorrow, 29 February, Saturday

    Time Temperature Precipitation Wind Pressure Humidity
    00:00 -2°C° 0 mm 3 mps 731 mmHg 92%
    01:00 -2°C° 0 mm 3 mps 731 mmHg 91%
    02:00 -4°C° 0 mm 3 mps 731 mmHg 91%
    03:00 -3°C° 0 mm 2 mps 731 mmHg 91%
    04:00 -3°C° 0 mm 2 mps 731 mmHg 90%
    05:00 -3°C° 0 mm 2 mps 731 mmHg 89%
    06:00 -3°C° 0 mm 2 mps 731 mmHg 87%
    07:00 -2°C° 0 mm 2 mps 731 mmHg 86%
    08:00 -1°C° 0 mm 2 mps 731 mmHg 80%
    09:00 +1°C° 0 mm 3 mps 730 mmHg 75%
    10:00 +2°C° 0 mm 3 mps 730 mmHg 70%
    11:00 +3°C° 0 mm 4 mps 730 mmHg 68%
    12:00 +3°C° 0 mm 4 mps 730 mmHg 66%
    13:00 +3°C° 0 mm 5 mps 729 mmHg 64%
    14:00 +3°C° 0 mm 5 mps 729 mmHg 65%
    15:00 +2°C° 0 mm 6 mps 728 mmHg 66%
    16:00 +2°C° 0 mm 6 mps 728 mmHg 67%
    17:00 +2°C° 0 mm 6 mps 728 mmHg 69%
    18:00 +1°C° 0 mm 6 mps 728 mmHg 71%
    19:00 0°C° 0 mm 7 mps 727 mmHg 72%
    20:00 0°C° 0 mm 7 mps 727 mmHg 73%
    21:00 0°C° 0 mm 7 mps 727 mmHg 73%
    22:00 0°C° 0 mm 7 mps 727 mmHg 73%
    23:00 0°C° 0 mm 7 mps 726 mmHg 72%

    1 March, Sunday

    Time Temperature Precipitation Wind Pressure Humidity
    00:00 0°C° 0 mm 7 mps 726 mmHg 72%
    01:00 +1°C° 0 mm 6 mps 726 mmHg 72%
    02:00 +1°C° 0 mm 6 mps 725 mmHg 74%
    03:00 -1°C° 0 mm 6 mps 725 mmHg 76%
    04:00 -1°C° 0 mm 6 mps 725 mmHg 78%
    05:00 -1°C° 0 mm 6 mps 724 mmHg 80%
    06:00 0°C° 0 mm 5 mps 724 mmHg 82%
    07:00 0°C° 0 mm 5 mps 724 mmHg 84%
    08:00 0°C° 0 mm 5 mps 724 mmHg 83%
    09:00 +1°C° 0 mm 4 mps 724 mmHg 82%
    10:00 +3°C° 0 mm 4 mps 724 mmHg 81%
    11:00 +3°C° 0.1 mm 4 mps 724 mmHg 83%
    12:00 +3°C° 0.1 mm 3 mps 725 mmHg 85%
    13:00 +3°C° 0.1 mm 3 mps 725 mmHg 86%
    14:00 +4°C° 0 mm 2 mps 725 mmHg 88%
    15:00 +4°C° 0 mm 2 mps 725 mmHg 91%
    16:00 +4°C° 0 mm 2 mps 725 mmHg 93%
    17:00 +3°C° 0 mm 2 mps 725 mmHg 93%
    18:00 +3°C° 0 mm 2 mps 725 mmHg 93%
    19:00 +1°C° 0 mm 3 mps 725 mmHg 93%
    20:00 +2°C° 0.2 mm 2 mps 725 mmHg 94%
    21:00 +4°C° 0.2 mm 1 mps 725 mmHg 94%
    22:00 +4°C° 0.2 mm 1 mps 724 mmHg 94%
    23:00 +4°C° 1.3 mm 1 mps 724 mmHg 95%

    2 March, Monday

    Time Temperature Precipitation Wind Pressure Humidity
    00:00 +4°C° 1.3 mm 1 mps 724 mmHg 96%
    01:00 +4°C° 1.3 mm 1 mps 724 mmHg 97%
    02:00 +4°C° 0 mm 1 mps 724 mmHg 97%
    03:00 +3°C° 0 mm 1 mps 725 mmHg 97%
    04:00 +3°C° 0 mm 1 mps 725 mmHg 97%
    05:00 +3°C° 0 mm 1 mps 725 mmHg 96%
    06:00 +3°C° 0 mm 1 mps 725 mmHg 95%
    07:00 +2°C° 0 mm 1 mps 725 mmHg 94%
    08:00 +4°C° 0 mm 1 mps 725 mmHg 87%
    09:00 +5°C° 0 mm 1 mps 725 mmHg 80%
    10:00 +7°C° 0 mm 1 mps 726 mmHg 74%
    11:00 +8°C° 0 mm 1 mps 725 mmHg 68%
    12:00 +8°C° 0 mm 1 mps 725 mmHg 62%
    13:00 +9°C° 0 mm 1 mps 725 mmHg 57%
    14:00 +9°C° 0 mm 1 mps 725 mmHg 61%
    15:00 +8°C° 0 mm 1 mps 725 mmHg 66%
    16:00 +7°C° 0 mm 2 mps 725 mmHg 70%
    17:00 +6°C° 0 mm 2 mps 725 mmHg 74%
    18:00 +4°C° 0 mm 2 mps 725 mmHg 78%
    19:00 +3°C° 0 mm 2 mps 725 mmHg 82%
    20:00 +3°C° 0 mm 2 mps 725 mmHg 84%
    21:00 +2°C° 0 mm 2 mps 725 mmHg 87%
    22:00 +2°C° 0 mm 2 mps 725 mmHg 89%
    23:00 +1°C° 0 mm 3 mps 725 mmHg 89%

    3 March, Tuesday

    Time Temperature Precipitation Wind Pressure Humidity
    00:00 +1°C° 0 mm 3 mps 725 mmHg 90%
    01:00 +1°C° 0 mm 3 mps 725 mmHg 90%
    02:00 +1°C° 0 mm 3 mps 725 mmHg 90%
    03:00 +1°C° 0 mm 3 mps 725 mmHg 90%
    04:00 +1°C° 0 mm 3 mps 725 mmHg 90%
    05:00 +1°C° 0 mm 3 mps 725 mmHg 90%
    06:00 +1°C° 0 mm 3 mps 725 mmHg 90%
    07:00 0°C° 0 mm 4 mps 725 mmHg 90%
    08:00 +3°C° 0 mm 4 mps 725 mmHg 85%
    09:00 +4°C° 0 mm 4 mps 726 mmHg 80%
    10:00 +5°C° 0 mm 4 mps 726 mmHg 74%
    11:00 +6°C° 0 mm 4 mps 726 mmHg 71%
    12:00 +8°C° 0 mm 4 mps 726 mmHg 68%
    13:00 +10°C° 0 mm 4 mps 725 mmHg 65%
    14:00 +8°C° 0 mm 4 mps 725 mmHg 69%
    15:00 +9°C° 0 mm 3 mps 725 mmHg 72%
    16:00 +8°C° 0 mm 3 mps 725 mmHg 75%
    17:00 +7°C° 0 mm 2 mps 725 mmHg 80%
    18:00 +6°C° 0 mm 2 mps 725 mmHg 85%
    19:00 +5°C° 0 mm 2 mps 725 mmHg 89%
    20:00 +5°C° 0 mm 2 mps 725 mmHg 89%
    21:00 +5°C° 0 mm 2 mps 725 mmHg 88%
    22:00 +6°C° 0 mm 1 mps 726 mmHg 88%
    23:00 +6°C° 0 mm 1 mps 725 mmHg 89%
    Show more